Location: Lecco
(45.8566°N, 9.3977°E)
Time: 13:11:05
(UTC+02:00)

Explorer 11/Cluster Stage 4 - Pass Details

Date: 17 August 2020
Orbit: 467 x 1258 km, 28.8° (Epoch: 24 September)

Event Time Altitude Azimuth Distance (km) Brightness Sun altitude
Rises 01:17:40 0° 252° (WSW) 4,133 - -30.8°
Reaches altitude 10° 01:21:59 10° 231° (SW) 3,218 - -30.8°
Maximum altitude 01:26:16 15° 200° (SSW) 2,842 - -30.8°
Drops below altitude 10° 01:30:30 10° 168° (SSE) 3,191 - -30.8°
Sets 01:34:47 0° 147° (SSE) 4,078 - -30.8°
